Regional Weather Roundup
Issued by NWS Upton, NY

Home | Current Version | Previous Version | Text Only | Print | Product List | Glossary On
Versions: 1 2 3 4 5 6 7 8 9 10 11 12 13 14 15 16 17 18 19 20 21 22 23 24 25 26 27
000
ASUS41 KOKX 290809
RWROKX

REGIONAL WEATHER ROUNDUP
NATIONAL WEATHER SERVICE NEW YORK NY
400 AM EDT THU JUN 29 2017

NOTE: "FAIR" INDICATES FEW OR NO CLOUDS BELOW 12,000 FEET WITH NO
SIGNIFICANT WEATHER AND/OR OBSTRUCTIONS TO VISIBILITY.

NYZ071-072-176-178-NJZ106-104-290900-
NEW YORK CITY METRO AREA

CITY           SKY/WX    TMP DP  RH WIND       PRES   REMARKS
Central Park   MOCLDY    69  55  60 VRB3      30.18R
Bronx Bot Gard   N/A     68  52  56 SW2       30.14F
LaGuardia APRT MOCLDY    71  56  58 SW12G17   30.14R
Kennedy INTL   MOCLDY    68  59  73 W14       30.16R
Breezy Point     N/A     64 N/A N/A W6          N/A
Newark/Liberty MOCLDY    66  54  65 SW6       30.15R
Teterboro      CLOUDY    66  55  67 S6        30.13S
$$

NYZ177-179-078>081-290900-
LONG ISLAND NEW YORK

CITY           SKY/WX    TMP DP  RH WIND       PRES   REMARKS
Jones Beach      N/A     64 N/A N/A SW7         N/A
Matinecock PT  NOT AVBL
Farmingdale    PTCLDY    65  54  67 SW6       30.15R
MacArthur/ISP  PTCLDY    63  55  75 SW6       30.15R
Shirley        PTCLDY    67  55  65 SW6       30.15R
Mt Sinai Harb    N/A    N/A N/A N/A SW6         N/A
Westhampton    PTCLDY    62  57  83 W3        30.17R
East Hampton   FAIR      64  58  80 SW5       30.14R
Montauk          N/A     65  61  87 SW5       30.15R
$$

NYZ052-065-067-290900-
HUDSON VALLEY

CITY           SKY/WX    TMP DP  RH WIND       PRES   REMARKS
White Plains   PTCLDY    66  50  56 W3        30.15R
Larchmont Harb   N/A     68 N/A N/A SW9         N/A
Croton O-T Hud   N/A     66 N/A N/A E3          N/A
Newburgh       CLEAR     63  54  72 W6        30.15R
Montgomery     CLOUDY    61  54  77 S3        30.13R
Poughkeepsie   MOCLDY    58  54  86 CALM      30.12R
Albany         CLOUDY    62  53  72 S6        30.09R
$$

NJZ001-105-106-008-010-013-015-019>022-104-290900-
NEW JERSEY

CITY           SKY/WX    TMP DP  RH WIND       PRES   REMARKS
Newark/Liberty MOCLDY    66  54  65 SW6       30.15R
Teterboro      CLOUDY    66  55  67 S6        30.13S
Caldwell       CLOUDY    66  52  60 VRB3      30.15S
Somerville     MOCLDY    58  55  90 CALM      30.14S
Linden         FAIR      66  55  67 CALM      30.15S
Perth Amboy      N/A     64 N/A N/A SW5         N/A
Sussex         CLOUDY    57  56  96 CALM      30.16R
Andover          N/A     58  55  90 CALM      30.16R
Trenton        CLOUDY    65  58  78 S3        30.15S
Millville      CLEAR     61  60  97 CALM      30.17R
Atlantic City  CLEAR     63  58  83 SW6       30.18R
Wrightstown    CLOUDY    59  57  92 CALM      30.14S
Toms River     CLEAR     58  55  90 SW5       30.18R
Belmar         CLEAR     62  57  83 SW3       30.18R
$$

PAZ047>061-062-071-290900-
EASTERN PENNSYLVANIA

CITY           SKY/WX    TMP DP  RH WIND       PRES   REMARKS
Philadelphia   CLOUDY    67  57  70 S7        30.15F
Allentown      CLOUDY    62  54  74 CALM      30.14S
Scranton       CLOUDY    63  51  65 CALM      30.13S
$$

CTZ002-004>006-009-010-012-RIZ004-006-007-MAZ004-011-015-290900-
SOUTHERN NEW ENGLAND
 IN CT

CITY           SKY/WX    TMP DP  RH WIND       PRES   REMARKS
Bradley INTL   CLOUDY    60  55  83 S5        30.12R
Hartford       CLOUDY    62  57  83 S5        30.12R
Danbury        NOT AVBL
Wtrbury/Oxford PTCLDY    61  48  63 CALM      30.15S
Bridgeport     CLOUDY    68  57  68 SW3       30.14R
Meriden        CLOUDY    57  56  96 CALM      30.13R
New Haven      CLOUDY    66  58  75 SW5       30.14R
Chester        FAIR      63  59  88 CALM      30.14R
Groton         CLOUDY    61  59  93 S5        30.13R
Wilimantic     PTCLDY    57  55  93 CALM      30.13S

 IN RI

CITY           SKY/WX    TMP DP  RH WIND       PRES   REMARKS
Providence     CLOUDY    63  59  87 W8        30.12S
Block Island   PTCLDY    64  61  90 SW12      30.15R
Westerly       MOCLDY    64  60  87 CALM      30.14R
 IN MA

CITY           SKY/WX    TMP DP  RH WIND       PRES   REMARKS
Boston         CLOUDY    65  55  70 SW8       30.10R
Worcester      CLOUDY    59  50  72 W9        30.12S
Westfield      CLOUDY    55  54  96 S3          N/A
Provincetown   PTCLDY    61  59  93 SW9       30.12R
Nantucket      PTCLDY    63  62  97 W13       30.13R
$$

ANZ330-335-338-340-345-350-353-355-290900-
COASTAL MARINE OBSERVATIONS


STATION/POSITION TIME  SKY/WX   TEMP    WIND        PRES    VSBY  WAVE
                                AIR SEA DIR/SP/G                  HT/PER
                 (UTC)          (F)     (DEG/KT/KT) (MB)    (MI)  (FT/S)
NY HARB ENTRANCE 0650            66 67  240/ 12/ 14 1020.6          2/ 4
20 S FIRE ISLAND 0750            68 69  250/ 16/ 17 1020.7          4/ 5
GREAT SOUTH BAY  0730            69 74  260/ 14/ 17   N/A
23 SSW MONTAUK P 0650            67 66              1020.8          4/ 5
15 E BARNEGAT LI 0730               65                N/A           3/ 5
HUDSON CANYON    0650            69 68  240/ 12/ 14 1021.3          3/ 4
KINGS POINT      0742            69 65  260/  9/ 11 1020.6
EXECUTION ROCKS  0745            68     210/  6/ 12   N/A
CENTRAL LI SOUND 0715            69     260/ 10/ 14   N/A           1
EASTERN LI SOUND NOT AVBL
ROBBINS REEF     0742                   260/ 12/ 14 1021.5
$$


>>>>>>>>>>>>>>>>>>>>>>>>>>>> KEY <<<<<<<<<<<<<<<<<<<<<<<<<<<
>                                                          <
>     SKY/WX - Sky Condition/Present Weather               <
>     TMP    - Temperature in Fahrenheit                   <
>     DP     - Dew Point in Fahrenheit                     <
>     RH     - Relative Humidity in Percent                <
>     WIND   - Direction (from) and Speed in MPH           <
>     PRES   - Mean Sea Level Pressure (inches of Hg)      <
>     WCI    - Wind Chill Index                            <
>     VSB    - VISIBILITY IN MILES                         <
>     HX     - HEAT INDEX                                  <
>     TC     - TEMPERATURE IN CELSIUS                      <
>     VRB    - VARIABLE WIND DIRECTION                     <
>                                                          <
>>>>>>>>>>>>>>>>>>>>>>>>>>>> KEY <<<<<<<<<<<<<<<<<<<<<<<<<<<




USA.gov is the U.S. government's official web portal to all federal, state and local government web resources and services.